Tracking 19794 objects as of 21-Jul-2019
HD Live streaming from Space Station
objects crossing your sky now

OPS 5712 (P/L 153)

Track OPS 5712 (P/L 153) now!
10-day predictions
OPS 5712 (P/L 153) is classified as:


NORAD ID: 2874
Int'l Code: 1967-053H
Perigee: 906.7 km
Apogee: 920.6 km
Inclination: 70.0 °
Period: 103.1 minutes
Semi major axis: 7284 km
RCS: 0.6915 m2 (medium)
Launch date: May 31, 1967
Source: United States (US)
Launch site: AIR FORCE WESTERN TEST RANGE (AFWTR)
aabbcc
Your satellite tracking list
Your tracking list is empty




NASA's NSSDC Master Catalog

Two Line Element Set (TLE):
1  2874U 67053H   19202.17774103 -.00000028  00000-0  18397-4 0  9999
2  2874  69.9744 120.2912 0009583 241.2057 118.8087 13.96332442655023
Source of the keplerian elements: AFSPC